Weather Roundup
Issued by NWS Corpus Christi, TX

Current Version | Previous Version | Text Only | Print | Product List | Glossary On
Versions: 1 2 3 4 5 6 7 8 9 10 11 12 13 14 15 16 17 18 19 20 21 22 23 24 25 26 27 28 29 30 31 32 33 34 35 36 37 38 39 40 41 42 43 44 45 46 47 48 49 50
464
ASUS44 KCRP 230010
HRRCRP

SOUTH TEXAS REGIONAL WEATHER ROUNDUP
NATIONAL WEATHER SERVICE CORPUS CHRISTI TX
600 PM CST WED FEB 22 2017


TXZ229>244-230100-
...CORPUS CHRISTI AREA OBSERVATIONS...

CITY           SKY/WX    TMP DP  RH WIND       PRES   REMARKS
CORPUS CHRISTI PTCLDY    79  50  36 SE12      29.80S
NAS CORPUS CHR PTCLDY    74  63  68 SE9       29.80F
ROCKPORT       CLEAR     73  50  44 S7        29.80F
KINGSVILLE NAS PTCLDY    79  46  31 SE14      29.79F
ALICE          CLEAR     91  35  13 CALM      29.78S
ORANGE GROVE   CLEAR     88  43  20 CALM      29.79F
FALFURRIAS     CLEAR    N/A N/A N/A CALM      29.78S
$$

...VICTORIA AREA OBSERVATIONS...

CITY           SKY/WX    TMP DP  RH WIND       PRES   REMARKS
VICTORIA       CLEAR     77  53  43 S12       29.80S
BEEVILLE       FAIR      83  52  34 SE6       29.80S
PLEASANTON     CLEAR     87  38  17 SW5       29.79S
SAN ANTONIO    CLEAR     83  43  24 SW6       29.80S
$$

...LAREDO AREA OBSERVATIONS...

CITY           SKY/WX    TMP DP  RH WIND       PRES   REMARKS
LAREDO         CLEAR     91  38  15 N5        29.78F
COTULLA        CLEAR     92  31  11 CALM      29.78F
DEL RIO        CLEAR     88  36  15 E6        29.77F
MCALLEN        CLEAR     91  38  15 SE7       29.80S
HEBBRONVILLE   CLEAR     89  30  11 CALM      29.81F
$$

...OTHER TEXAS OBSERVATIONS...

CITY           SKY/WX    TMP DP  RH WIND       PRES   REMARKS
BROWNSVILLE    NOT AVBL
HOUSTON        CLEAR     76  51  41 SW3       29.79S
COL. STATION   CLEAR     79  43  27 S5        29.78F
AUSTIN         CLEAR     80  50  34 S9        29.77S
WACO           CLEAR     74  51  44 S12       29.75F
FORT WORTH     PTCLDY    79  45  29 S13       29.72S
WICHITA FALLS  PTCLDY    77  38  24 S7        29.71S
LUBBOCK        PTCLDY    82  29  14 W13       29.79F
EL PASO        MOSUNNY   78  25  14 SW13G18   29.89F
$$

...MARINE OBSERVATIONS...

STATION/POSITION TIME  SKY/WX   TEMP    WIND        PRES    VSBY  WAVE   SWELL
                                AIR SEA DIR/SP/G                  HT/PER HT/PER
                 (UTC)          (F)     (DEG/KT/KT) (MB)    (MI)  (FT/S) (FT/S)
PORT ARANSAS     0000            71 70  130/  7/  8 1009.6F
BUOY 90 E PORT A 2350            71 71  190/  2/  4 1010.1F         1
BUOY 45 SE BAFFI 2350            76     140/  8/  8 1009.0F         1
BUOY 200 E PT IS 2350            73 74  330/ 10/ 12 1010.9R         2/ 5   2/ 5
BUOY 15 E GALVES 2350            67 67  200/ 10/ 10 1009.6F         1/ 5
$$




USA.gov is the U.S. government's official web portal to all federal, state and local government web resources and services.